Showing default

COSMOS 2479, 38101

Orbit data source: Space-Track

COSMOS 2479, 38101 is a payload satellite owned by PVO (CIS) in GEO that was launched on Fri, 30 Mar 2012 UTC via a PROTON-K/DM-2 launch vehicle from the Tyuratam Missile And Space Complex (TTMTR). Payloads include a variety of satellites, spacecraft, and rockets equipped with specific instruments for various scientific and technological missions. These include communications satellites like Starlink; space stations such as the ISS; scientific satellites like the Hubble; Earth observation satellites from companies like Planet Labs, Umbra, and HawkEye 360; GPS; miniature CubeSats for education and research; and military/defense satellites.

Loading next visibility...
COSMOS 2479 details
Identifier
38101, 2012-012A
Orbit
GEO
Last TLE update11 hours ago
Origin
Flag of CISPVO (CIS)
ManufacturerNPOL/KOMET
MissionNon-operational Defense Early Warn
Bus & MotorPROGNOZ, Unknown motor
Mass2,580 kg wet, ~2,200 kg dry
Launch date (UTC)
2012-03-30 (13 years ago)
Launch vehicle
PROTON-K/DM-2
Launch site
Tyuratam Missile And Space Complex (TTMTR)
Object type
Payload
Rocket body
Debris
Shape & HBRStep Cyl + 2 Pan, 10 m
Radar Cross Section12.911 m², Large (>1 m²)

Expand to show TLE details & history

TLE from 11 hours ago
0 COSMOS 2479
1 38101U 12012A   24361.15482598 -.00000193  00000-0  00000-0 0  9991
2 38101   7.6040  61.4722 0006335 225.4346 136.7831  1.00389659 46692
Epoch: 2024-12-26T03:42Z
Definitive object data (Epoch: 2024-12-26T03:42:56.964Z)
Latitude0.31475°
Longitude-87.16059°
Altitude35,772.633 km
Speed3.074 km/s
True Right ascension04h 14m 51s
True Declination0° 18' 52"
Sunlit
Object was in daylight at TLE epoch
Visualization TLE readout
Latitude1.78384°
Longitude77.03061°
Altitude35,739.081 km
Speed3.077 km/s
Apparent Right ascension15h 20m 58s
Apparent Declination-4° 12' 50"
Sunlit
Object is in daylight
Visualization observer readout
Local Sidereal Time13:58:54
Azimuth151.939° SSE
Elevation42.009°
Doppler factor1
Orbital elements
Apogee altitude35,781.318 km
Perigee altitude35,727.936 km
Semi-major axis42,132.764 km
Eccentricity0.0006335
Inclination7.604°
RAAN61.4722°
Arg. of periapsis225.4346°
True anomaly136.83278°
Mean anomaly136.7831°
Eccentric anomaly136.80794°
Mean motion0.25097 °/min
BSTARUnknown
Orbital period1434.46 mins
Loading historical data...
38101 neighbors
Authenticating...
Loading maneuver chart data...
Loading historical data...
Loading historical data...
Loading historical data...
Loading historical data...
Loading historical data...
Loading historical data...
Loading historical data...

COSMOS 2479 Visibility forecast

Observer location: undefined°, undefined

Span
Click to sort rows by Start time (UTC) header in descending order
Start Az.
Max El. time (UTC)
Max El. Az.
Max El.
End time (UTC)
End Az.
1440 mins2024-12-26 14:37:02.210Z151.95° SSE2024-12-27 09:24:02.210Z148.046° SSE36.595°2024-12-27 14:37:02.210Z151.472° SSE
|